Tracking 19827 objects as of 21-Aug-2019
HD Live streaming from Space Station
objects crossing your sky now

ACTS

Track ACTS now!
ACTS is classified as:


NORAD ID: 22796
Int'l Code: 1993-058B
Perigee: 35,645.1 km
Apogee: 35,941.2 km
Inclination: 14.5 °
Period: 1,436.1 minutes
Semi major axis: 42164 km
RCS: 21.8582 m2 (large)
Launch date: September 12, 1993
Source: United States (US)
Launch site: AIR FORCE EASTERN TEST RANGE (AFETR)
aabbcc
Your satellite tracking list
Your tracking list is empty




NASA's NSSDC Master Catalog

Two Line Element Set (TLE):
1 22796U 93058B   19232.89396718 -.00000111 +00000-0 +00000-0 0  9993
2 22796 014.4632 015.7258 0035103 019.0864 150.5691 01.00273897101912
Source of the keplerian elements: AFSPC